Terminal Aerodrome Forecast
Issued by NWS Newport/Morehead City, NC

Home | Current Version | Previous Version | Graphics & Text | Print | Product List | Glossary On
Versions: 1 2 3 4 5 6 7 8 9 10 11 12 13 14 15 16 17 18 19 20
000
FTUS42 KMHX 221700
TAFEWN
TAF
KEWN 221722Z 2218/2318 35007KT 5SM -DZ BR OVC006
      TEMPO 2220/2222 3SM -RA BR OVC004
     FM222200 03003KT 1SM -RA BR OVC004
     FM231300 07005KT 2SM -RA BR BKN004=

USA.gov is the U.S. government's official web portal to all federal, state and local government web resources and services.